Regional Weather Roundup
Issued by NWS

Home | Current Version | Previous Version | Graphics & Text | Print | Product List | Glossary On
Versions: 1 2 3 4 5 6 7 8 9 10 11 12 13 14 15 16 17 18 19 20 21 22 23 24 25 26 27 28 29 30 31 32 33 34 35 36 37 38 39 40 41 42 43 44 45 46 47 48 49 50
000
ASUS45 KCYS 292010
RWRWY

WYOMING REGIONAL WEATHER ROUNDUP
NATIONAL WEATHER SERVICE CHEYENNE WY
200 PM MDT FRI AUG 29 2014

NOTE:  "FAIR" INDICATES FEW OR NO CLOUDS BELOW 12,000 FEET
WITH NO SIGNIFICANT WEATHER AND/OR OBSTRUCTIONS TO VISIBILITY.

WYZ001-292100-
YELLOWSTONE NATIONAL PARK

CITY           SKY/WX    TMP DP  RH WIND       PRES   REMARKS
LK YELLOWSTONE   N/A     67  38  34 W9        30.26F
W YELLOWSTONE  NOT AVBL

$$
WYZ002>013-054>058-071-098>099-292100-
NORTHERN WYOMING

CITY           SKY/WX    TMP DP  RH WIND       PRES   REMARKS
JACKSON        MOSUNNY   75  43  31 S14       30.16F
CODY           MOSUNNY   75  48  38 NE7       30.06F
GREYBULL       SUNNY     78  48  34 S8        30.01F
WORLAND        SUNNY     78  44  29 CALM      30.03F
SHERIDAN       SUNNY     71  53  52 SW8       30.06F
BUFFALO        MOSUNNY   71  51  49 E6        30.11F
GILLETTE       MOSUNNY   74  52  46 N8        30.06F
HULETT         FAIR      72  54  53 MISG      30.08
NEWCASTLE      FAIR      73  45  35 NW13G18   30.05

$$
WYZ014>020-022>026-101>103-292100-
CENTRAL WYOMING

CITY           SKY/WX    TMP DP  RH WIND       PRES   REMARKS
BIG PINEY      SUNNY     73  39  29 W7        30.22F
PINEDALE       MOCLDY    70  34  26 NW5       30.22F
DUBOIS         FAIR      70  30  23 N12G18    30.19F
LANDER         SUNNY     80  45  28 NE8       30.08F
RIVERTON       SUNNY     75  42  30 VRB6      30.11F
CASPER         SUNNY     79  41  25 MISG      30.10F
DOUGLAS        SUNNY     76  45  33 VRB7      30.10F

$$
WYZ021-027>030-104>119-292100-
SOUTHERN WYOMING

CITY           SKY/WX    TMP DP  RH WIND       PRES   REMARKS
EVANSTON       SUNNY     75  40  28 SW13      30.24F
KEMMERER       CLEAR     72  37  28 W9G21     30.25F
FORT BRIDGER   FAIR      76  38  25 NW5       30.26F
ROCK SPRINGS   SUNNY     75  35  23 NW15G24   30.20F
DIXON          FAIR      73  47  39 W12       30.23F
RAWLINS        SUNNY     74  40  29 SW10G22   30.20F
SARATOGA       FAIR      70  45  40 W9G18     30.22F
LARAMIE        PTSUNNY   67  43  41 MISG      30.22F
CHEYENNE       SUNNY     74  44  34 VRB7G20   30.15S
TORRINGTON     MOSUNNY   79  51  37 NW6       30.03F
PINE BLUFFS    FAIR      73  48  40 N14G20    30.11S

$$


USA.gov is the U.S. government's official web portal to all federal, state and local government web resources and services.